SCP
0 -0 -0 -0 -0 -0 -0 -0 0 -0 -0 -0 -0 -0 -0 -0 -0 -0 -0 -0 -0 -0 -0 -0 -0 -0 -0 -0 -0 -0 -0 -0 -0 -0 -0 -0 -0 -0 -0 0 0 0 0
-0 -0 -0 -0 -0 -0 0 0 0 -0 -0 -0 -0 -0 -0 -0 -0 -0 -0 -0 -0 -0 -0 -0 -0 -0 -0 -0 -0 -0 -0 -0 -0 -0 -0 -0 -0 -0 0 0 0 0 0
-0 -0 -0 -0 -0 -0 0 -0 -0 -0 -0 -0 -0 -0 -0 -0 -0 -0 -0 -0 -0 -0 -0 -0 -0 -0 -0 -0 0 -0 -0 -0 -0 -0 0 -0 -0 0 0 0 0 0 0
-0 -0 -0 -0 -0 -0 0 0 -0 0 -0 -0 -0 -0 -0 -0 -0 -0 -0 -0 -0 -0 -0 -0 -0 -0 -0 -0 -0 -0 -0 -0 -0 -0 -0 -0 -0 0 0 0 0 0 0
-0 -0 -0 -0 -0 -0 -0 -0 -0 -0 -0 -0 -0 -0 -0 -0 -0 -0 -0 0 -0 -0 -0 -0 -0 -0 -0 -0 -0 -0 -0 -0 -0 -0 -0 -0 0 0 0 0 0 0 0
-0 -0 -0 -0 -0 -0 -0 -0 -0 -0 -0 -0 0 -0 -0 -0 -0 -0 0 0 -0 -0 -0 -0 -0 -0 -0 -0 -0 -0 0 -0 0 0 0 -0 0 0 0 0 0 0 0
-0 -0 -0 -0 -0 -0 -0 -0 -0 -0 -0 -0 0 -0 -0 -0 -0 -0 -0 -0 -0 -0 -0 -0 -0 -0 -0 -0 -0 -0 -0 0 0 0 0 0 0 0 0 0 0 0 0
0 -0 0 0 -0 -0 -0 -0 -0 -0 -0 -0 -0 -0 -0 -0 -0 -0 0 0 -0 -0 -0 -0 -0 -0 -0 -0 -0 -0 0 0 0 0 0 0 0 0 0 0 0 0 0
0 0 -0 0 0 0 0 0 -0 -0 -0 -0 -0 -0 -0 -0 -0 -0 0 0 -0 -0 -0 -0 0 0 0 0 0 0 0 0 0 0 0 0 0 0 0 0 0 0 0
0 0 0 0 -0 0 0 0 0 0 -0 -0 -0 -0 -0 0 0 0 0 0 0 0 0 0 0 0 0 0 0 0 0 0 0 0 0 0 0 0 0 0 0 0 0
0 0 0 0 -0 -0 0 0 0 0 0 0 0 0 0 0 0 0 0 0 0 0 0 0 0 0 0 0 0 0 0 0 0 0 0 0 0 0 0 0 0 0 0
0 0 0 0 0 -0 0 0 0 0 0 0 0 0 0 0 0 0 0 0 0 0 0 0 0 0 0 0 0 0 0 0 0 0 0 0 0 0 0 0 0 0 0
0 0 0 0 0 0 -0 0 0 0 0 0 0 0 0 0 0 0 0 0 0 0 0 0 0 0 0 0 0 0 0 0 0 0 0 0 0 0 0 0 0 0 0
0 0 0 0 0 0 0 0 0 0 0 0 0 0 0 0 0 0 0 0 0 0 0 0 0 0 0 0 0 0 0 0 0 0 0 0 0 0 0 0 0 0 0
0 0 0 0 0 0 0 0 0 0 0 0 0 0 0 0 0 0 0 0 0 0 0 0 0 0 0 0 0 0 0 0 0 0 0 0 0 0 0 0 0 0 0
0 0 0 0 0 0 0 0 0 0 0 0 0 0 0 0 0 0 0 0 0 0 0 0 0 0 0 0 0 0 0 0 0 0 0 0 0 0 0 0 0 0 0
0 0 0 0 0 0 0 0 0 0 0 0 0 0 0 0 0 0 0 0 0 0 0 0 0 0 0 0 0 0 0 0 0 0 0 0 0 0 0 0 0 0 0
0 0 0 0 0 0 0 0 0 0 0 0 0 0 0 0 0 0 0 0 0 0 0 0 0 0 0 0 0 0 0 0 0 0 0 0 0 0 0 0 0 0 0
0 0 0 0 0 0 0 0 0 0 0 0 0 0 0 0 0 0 0 0 0 0 0 0 0 0 0 0 0 0 0 0 0 0 0 0 0 0 0 0 0 0 0
0 0 0 0 0 0 0 0 0 0 0 0 0 0 0 0 0 0 0 0 0 0 0 0 0 0 0 0 0 0 0 0 0 0 0 0 0 0 0 0 0 0 0
0 0 0 0 0 0 0 0 0 0 0 0 0 0 0 0 0 0 0 0 0 0 0 0 0 0 0 0 0 0 0 0 0 0 0 0 0 0 0 0 0 0 0
0 0 0 0 0 0 0 0 0 0 0 0 0 0 0 0 0 0 0 0 0 0 0 0 0 0 0 0 0 0 0 0 0 0 0 0 0 0 0 0 0 0 0
0 0 0 0 0 0 0 0 0 0 0 0 0 0 0 0 0 0 0 0 0 0 0 0 0 0 0 0 0 0 0 0 0 0 0 0 0 0 0 0 0 0 0
0 0 0 0 0 0 0 0 0 0 0 0 0 0 0 0 0 0 0 0 0 0 0 0 0 0 0 0 0 0 0 0 0 0 0 0 0 0 0 0 0 0 0
0 0 0 0 0 0 0 0 0 0 0 0 0 0 0 0 0 0 0 0 0 0 0 0 0 0 0 0 0 0 0 0 0 0 0 0 0 0 0 0 0 0 0
0 0 0 0 0 0 0 0 0 0 0 0 0 0 0 0 0 0 0 0 0 0 0 0 0 0 0 0 0 0 0 0 0 0 0 0 0 0 0 0 0 0 0
Wind_Speed_500mb
22 17 17 17 22 27 25 23 20 17 13 14 18 17 17 17 16 14 15 20 25 30 30 31 33 33 34 32 30 32 32 37 31 34 30 30 32 30 34 32 35 35 33
23 25 22 20 24 27 21 16 13 13 13 14 15 15 16 17 16 15 13 25 22 29 27 29 29 29 30 29 29 31 32 33 34 32 33 30 34 30 30 29 30 29 26
25 28 27 25 24 21 13 9 7 8 12 17 16 18 17 17 19 19 21 28 25 24 25 25 27 24 26 26 25 25 28 29 25 30 33 32 31 33 27 28 28 26 24
21 30 31 30 25 18 13 6 7 7 11 17 19 21 16 15 17 20 22 26 24 24 23 23 23 23 21 25 27 23 23 27 27 34 31 29 27 27 29 27 25 27 26
23 27 30 30 25 18 11 6 7 6 11 16 17 22 14 15 16 19 21 22 23 22 22 21 20 19 18 20 22 22 24 24 24 27 26 27 29 24 20 21 21 21 21
27 26 26 28 26 20 13 9 5 7 11 12 16 16 15 14 14 18 19 19 20 20 21 18 17 16 14 15 18 22 27 25 21 22 22 21 21 19 16 17 19 18 17
28 28 27 27 26 22 16 10 6 9 14 17 21 16 21 16 16 14 16 18 18 19 19 17 16 13 9 10 12 15 21 19 20 20 18 20 21 16 16 16 16 15 11
24 28 29 29 27 23 19 13 8 9 15 21 24 21 24 17 15 16 15 15 17 17 16 15 14 11 7 5 6 9 14 13 13 16 16 15 16 17 15 14 12 9 4
22 25 31 31 30 26 22 20 14 9 12 16 18 19 21 19 12 16 15 14 14 15 15 13 12 10 7 4 1 4 8 9 10 11 13 14 14 15 15 14 10 6 2
24 24 30 34 33 30 27 23 18 13 14 18 19 19 20 21 20 13 14 14 15 14 13 12 12 10 9 8 5 4 5 6 8 9 10 12 13 15 15 14 10 3 2
31 28 28 35 36 33 30 28 23 20 20 22 23 21 18 15 15 14 13 15 16 14 13 13 13 13 12 10 9 8 9 9 9 9 10 10 13 15 14 13 11 2 2
37 33 31 36 38 37 37 33 31 28 25 23 26 26 23 21 18 18 17 19 18 17 17 17 17 16 14 13 12 11 12 12 12 10 11 12 13 15 15 12 9 2 8
31 34 32 33 39 43 43 40 38 35 32 28 28 29 29 27 26 24 23 22 21 21 22 21 21 19 17 15 16 16 15 15 16 14 14 16 16 17 16 12 10 8 11
38 36 36 36 38 44 46 46 44 43 39 36 32 31 34 33 31 29 28 25 25 26 26 25 24 23 22 19 19 20 20 18 18 17 17 19 19 19 18 16 11 11 10
45 43 42 42 42 42 46 50 50 51 49 43 39 37 38 36 34 32 31 31 29 31 30 29 29 29 26 24 23 23 22 20 19 19 20 21 21 21 20 18 14 11 14
49 51 47 49 47 46 48 48 51 51 54 51 46 43 42 42 40 38 35 35 35 35 33 33 33 33 31 30 27 26 24 23 22 23 22 21 22 22 19 18 16 15 15
47 51 55 56 54 53 53 52 51 52 50 56 52 47 47 46 44 43 42 40 35 36 36 39 38 39 38 34 31 30 29 27 27 25 24 22 22 21 19 17 16 17 15
50 50 52 58 62 61 58 57 56 57 58 56 53 52 51 49 48 47 47 45 38 40 42 44 41 43 42 39 36 33 34 33 31 29 29 27 26 22 21 17 17 18 17
56 54 52 56 62 65 66 63 63 62 65 62 60 57 57 55 52 51 51 48 43 44 47 48 47 47 46 43 40 38 38 38 35 34 33 30 30 27 23 21 19 17 18
35 49 58 55 59 62 65 69 71 69 69 68 69 67 63 63 58 54 56 52 50 52 53 53 53 50 50 46 46 47 45 44 42 41 37 34 33 33 29 24 23 20 19
44 45 46 57 58 64 69 73 78 80 77 75 73 73 72 68 65 62 63 61 58 60 58 56 55 54 55 51 51 53 53 51 51 47 41 39 38 34 33 28 26 23 20
54 58 55 56 59 65 69 73 78 78 82 79 78 76 76 76 71 71 72 70 66 66 64 65 62 60 62 54 57 52 50 52 51 47 42 41 40 38 35 30 27 23 22
70 64 62 60 60 66 69 75 79 82 85 86 86 85 85 81 77 78 77 75 74 73 74 73 71 69 67 61 60 53 21 18 22 24 26 30 34 42 35 32 29 28 29
61 57 59 64 67 64 72 84 84 86 90 84 84 89 90 88 84 81 81 81 80 79 81 82 79 76 72 73 67 71 71 69 32 27 27 31 36 40 38 33 32 31 38
53 56 58 56 59 70 78 78 85 91 92 89 90 89 93 94 89 88 87 86 87 89 87 87 88 85 81 80 80 77 76 76 78 73 63 53 47 43 41 38 36 43 41
45 47 49 54 60 59 68 78 85 84 85 93 94 94 89 94 95 92 89 91 93 94 93 92 94 93 86 87 87 89 88 80 81 77 82 78 70 55 46 45 44 46 43
Wind_Direction_500mb
168 169 162 145 144 144 145 138 128 103 93 105 114 125 134 143 141 141 138 139 141 107 100 98 98 97 92 89 88 84 76 83 85 84 82 82 85 80 79 73 67 65 65
159 157 148 146 144 150 150 136 118 106 104 105 117 142 127 112 124 150 147 141 133 115 104 106 102 104 94 84 79 81 72 66 79 78 77 64 67 77 78 76 72 67 62
169 163 157 155 158 163 155 114 100 116 122 122 123 119 119 117 120 125 131 122 125 111 108 108 106 103 94 82 85 81 69 60 59 74 74 66 62 68 76 71 68 62 53
181 173 168 163 168 171 151 120 97 134 145 139 136 128 121 119 122 117 122 119 111 110 113 114 115 107 92 74 82 79 62 58 63 66 67 69 66 56 54 66 62 50 41
188 186 177 171 169 164 153 125 83 135 165 159 140 130 122 127 125 125 127 120 114 121 120 121 120 112 89 75 84 78 69 68 75 73 69 62 57 47 42 52 51 42 48
184 190 189 179 173 168 164 145 111 135 171 166 143 150 138 139 129 135 126 122 127 124 124 129 127 112 97 81 80 82 80 82 78 72 63 65 68 48 34 46 45 36 74
193 191 196 193 185 180 173 162 160 161 173 170 162 155 138 160 151 143 140 137 133 131 134 141 130 123 108 90 80 82 82 85 72 62 63 58 44 28 39 41 43 55 75
206 200 196 199 198 195 184 175 196 186 184 182 182 153 151 171 165 169 158 148 140 141 148 146 141 141 136 112 78 70 72 76 61 53 50 43 32 21 34 37 46 61 55
210 212 205 203 205 206 201 189 189 196 190 200 204 179 173 177 186 176 165 157 153 162 158 155 158 161 168 176 88 37 41 41 39 38 32 28 18 5 24 23 30 48 31
223 222 218 210 210 214 214 208 198 188 183 202 208 206 193 185 191 166 168 166 181 178 169 177 179 179 193 208 224 277 337 350 359 2 11 8 3 354 7 12 9 53 244
222 226 224 221 217 216 222 219 213 204 197 200 209 212 212 197 199 212 178 188 199 193 193 200 203 203 213 226 241 264 291 305 318 333 348 348 343 342 348 1 9 57 225
225 224 228 227 227 224 221 223 225 221 215 209 211 216 215 211 209 214 213 210 210 210 214 215 218 220 225 235 250 266 273 289 304 309 321 320 325 328 329 343 348 323 267
240 235 235 231 232 232 230 227 226 230 230 224 219 220 220 219 219 220 221 223 224 223 224 227 230 235 239 244 258 264 269 281 292 300 309 306 309 313 315 318 314 304 273
240 245 243 240 236 232 235 235 234 233 234 231 228 228 229 228 227 226 226 230 231 231 232 233 237 241 245 250 259 264 270 275 284 296 298 297 298 299 301 304 291 293 301
246 248 244 242 241 236 237 238 238 238 235 237 236 236 238 236 234 233 232 234 236 239 240 240 242 245 249 255 260 264 267 273 281 288 287 288 292 289 290 292 279 269 294
252 252 251 244 243 242 241 241 243 246 239 236 238 243 246 245 242 241 241 243 242 245 244 245 247 249 250 252 257 263 266 272 275 277 281 284 288 281 283 282 272 258 257
264 258 254 251 247 245 246 246 247 249 250 241 242 244 246 247 246 245 245 247 248 249 249 246 246 250 253 255 255 257 262 265 267 268 272 279 283 277 273 270 265 260 258
264 265 261 252 249 249 248 248 248 248 248 246 244 245 246 248 250 250 250 250 250 250 250 250 249 251 255 255 258 258 262 262 264 266 267 272 274 269 266 264 257 256 259
270 267 265 256 252 251 250 250 250 250 250 251 251 248 245 248 250 252 252 253 251 251 250 251 252 253 255 257 260 261 260 261 262 263 265 268 270 261 252 252 250 252 260
286 272 265 259 256 255 251 249 250 251 251 252 252 252 251 250 250 252 254 252 249 249 249 250 252 254 257 260 262 261 260 260 261 261 263 264 262 257 246 246 252 253 258
276 277 270 264 261 254 249 247 247 248 248 249 252 251 252 253 254 255 255 252 248 248 250 252 254 256 257 258 262 262 263 263 262 263 263 261 254 247 245 241 248 253 260
276 271 268 266 265 260 258 256 253 253 254 255 256 256 257 254 253 254 254 254 252 252 251 250 249 250 254 252 254 266 277 277 271 267 261 255 252 235 242 245 249 249 259
277 272 267 270 268 267 267 259 255 253 256 257 254 254 254 254 254 252 254 255 256 254 255 255 252 251 252 253 250 247 259 256 277 271 259 249 250 236 243 243 242 259 268
279 277 270 268 270 269 267 259 258 257 256 261 264 262 260 259 258 255 254 254 256 257 254 256 257 253 252 253 250 249 250 255 267 284 265 258 251 242 248 251 249 257 267
289 282 280 274 271 267 264 265 263 260 262 265 264 266 269 268 260 260 257 255 255 255 257 256 257 256 254 253 254 253 254 254 256 254 270 266 256 248 241 257 255 260 266
289 282 285 282 274 268 264 264 262 265 266 266 267 268 269 272 271 264 260 259 257 256 258 259 259 260 257 257 256 256 253 251 254 252 255 263 265 264 262 260 257 264 265
Wind_Speed_850mb
22 17 17 17 22 27 25 23 20 17 13 14 18 17 17 17 16 14 15 20 25 30 30 31 33 33 34 32 30 32 32 37 31 34 30 30 32 30 34 32 35 35 33
23 25 22 20 24 27 21 16 13 13 13 14 15 15 16 17 16 15 13 25 22 29 27 29 29 29 30 29 29 31 32 33 34 32 33 30 34 30 30 29 30 29 26
25 28 27 25 24 21 13 9 7 8 12 17 16 18 17 17 19 19 21 28 25 24 25 25 27 24 26 26 25 25 28 29 25 30 33 32 31 33 27 28 28 26 24
21 30 31 30 25 18 13 6 7 7 11 17 19 21 16 15 17 20 22 26 24 24 23 23 23 23 21 25 27 23 23 27 27 34 31 29 27 27 29 27 25 27 26
23 27 30 30 25 18 11 6 7 6 11 16 17 22 14 15 16 19 21 22 23 22 22 21 20 19 18 20 22 22 24 24 24 27 26 27 29 24 20 21 21 21 21
27 26 26 28 26 20 13 9 5 7 11 12 16 16 15 14 14 18 19 19 20 20 21 18 17 16 14 15 18 22 27 25 21 22 22 21 21 19 16 17 19 18 17
28 28 27 27 26 22 16 10 6 9 14 17 21 16 21 16 16 14 16 18 18 19 19 17 16 13 9 10 12 15 21 19 20 20 18 20 21 16 16 16 16 15 11
24 28 29 29 27 23 19 13 8 9 15 21 24 21 24 17 15 16 15 15 17 17 16 15 14 11 7 5 6 9 14 13 13 16 16 15 16 17 15 14 12 9 4
22 25 31 31 30 26 22 20 14 9 12 16 18 19 21 19 12 16 15 14 14 15 15 13 12 10 7 4 1 4 8 9 10 11 13 14 14 15 15 14 10 6 2
24 24 30 34 33 30 27 23 18 13 14 18 19 19 20 21 20 13 14 14 15 14 13 12 12 10 9 8 5 4 5 6 8 9 10 12 13 15 15 14 10 3 2
31 28 28 35 36 33 30 28 23 20 20 22 23 21 18 15 15 14 13 15 16 14 13 13 13 13 12 10 9 8 9 9 9 9 10 10 13 15 14 13 11 2 2
37 33 31 36 38 37 37 33 31 28 25 23 26 26 23 21 18 18 17 19 18 17 17 17 17 16 14 13 12 11 12 12 12 10 11 12 13 15 15 12 9 2 8
31 34 32 33 39 43 43 40 38 35 32 28 28 29 29 27 26 24 23 22 21 21 22 21 21 19 17 15 16 16 15 15 16 14 14 16 16 17 16 12 10 8 11
38 36 36 36 38 44 46 46 44 43 39 36 32 31 34 33 31 29 28 25 25 26 26 25 24 23 22 19 19 20 20 18 18 17 17 19 19 19 18 16 11 11 10
45 43 42 42 42 42 46 50 50 51 49 43 39 37 38 36 34 32 31 31 29 31 30 29 29 29 26 24 23 23 22 20 19 19 20 21 21 21 20 18 14 11 14
49 51 47 49 47 46 48 48 51 51 54 51 46 43 42 42 40 38 35 35 35 35 33 33 33 33 31 30 27 26 24 23 22 23 22 21 22 22 19 18 16 15 15
47 51 55 56 54 53 53 52 51 52 50 56 52 47 47 46 44 43 42 40 35 36 36 39 38 39 38 34 31 30 29 27 27 25 24 22 22 21 19 17 16 17 15
50 50 52 58 62 61 58 57 56 57 58 56 53 52 51 49 48 47 47 45 38 40 42 44 41 43 42 39 36 33 34 33 31 29 29 27 26 22 21 17 17 18 17
56 54 52 56 62 65 66 63 63 62 65 62 60 57 57 55 52 51 51 48 43 44 47 48 47 47 46 43 40 38 38 38 35 34 33 30 30 27 23 21 19 17 18
35 49 58 55 59 62 65 69 71 69 69 68 69 67 63 63 58 54 56 52 50 52 53 53 53 50 50 46 46 47 45 44 42 41 37 34 33 33 29 24 23 20 19
44 45 46 57 58 64 69 73 78 80 77 75 73 73 72 68 65 62 63 61 58 60 58 56 55 54 55 51 51 53 53 51 51 47 41 39 38 34 33 28 26 23 20
54 58 55 56 59 65 69 73 78 78 82 79 78 76 76 76 71 71 72 70 66 66 64 65 62 60 62 54 57 52 50 52 51 47 42 41 40 38 35 30 27 23 22
70 64 62 60 60 66 69 75 79 82 85 86 86 85 85 81 77 78 77 75 74 73 74 73 71 69 67 61 60 53 21 18 22 24 26 30 34 42 35 32 29 28 29
61 57 59 64 67 64 72 84 84 86 90 84 84 89 90 88 84 81 81 81 80 79 81 82 79 76 72 73 67 71 71 69 32 27 27 31 36 40 38 33 32 31 38
53 56 58 56 59 70 78 78 85 91 92 89 90 89 93 94 89 88 87 86 87 89 87 87 88 85 81 80 80 77 76 76 78 73 63 53 47 43 41 38 36 43 41
45 47 49 54 60 59 68 78 85 84 85 93 94 94 89 94 95 92 89 91 93 94 93 92 94 93 86 87 87 89 88 80 81 77 82 78 70 55 46 45 44 46 43
Wind_Direction_850mb
168 169 162 145 144 144 145 138 128 103 93 105 114 125 134 143 141 141 138 139 141 107 100 98 98 97 92 89 88 84 76 83 85 84 82 82 85 80 79 73 67 65 65
159 157 148 146 144 150 150 136 118 106 104 105 117 142 127 112 124 150 147 141 133 115 104 106 102 104 94 84 79 81 72 66 79 78 77 64 67 77 78 76 72 67 62
169 163 157 155 158 163 155 114 100 116 122 122 123 119 119 117 120 125 131 122 125 111 108 108 106 103 94 82 85 81 69 60 59 74 74 66 62 68 76 71 68 62 53
181 173 168 163 168 171 151 120 97 134 145 139 136 128 121 119 122 117 122 119 111 110 113 114 115 107 92 74 82 79 62 58 63 66 67 69 66 56 54 66 62 50 41
188 186 177 171 169 164 153 125 83 135 165 159 140 130 122 127 125 125 127 120 114 121 120 121 120 112 89 75 84 78 69 68 75 73 69 62 57 47 42 52 51 42 48
184 190 189 179 173 168 164 145 111 135 171 166 143 150 138 139 129 135 126 122 127 124 124 129 127 112 97 81 80 82 80 82 78 72 63 65 68 48 34 46 45 36 74
193 191 196 193 185 180 173 162 160 161 173 170 162 155 138 160 151 143 140 137 133 131 134 141 130 123 108 90 80 82 82 85 72 62 63 58 44 28 39 41 43 55 75
206 200 196 199 198 195 184 175 196 186 184 182 182 153 151 171 165 169 158 148 140 141 148 146 141 141 136 112 78 70 72 76 61 53 50 43 32 21 34 37 46 61 55
210 212 205 203 205 206 201 189 189 196 190 200 204 179 173 177 186 176 165 157 153 162 158 155 158 161 168 176 88 37 41 41 39 38 32 28 18 5 24 23 30 48 31
223 222 218 210 210 214 214 208 198 188 183 202 208 206 193 185 191 166 168 166 181 178 169 177 179 179 193 208 224 277 337 350 359 2 11 8 3 354 7 12 9 53 244
222 226 224 221 217 216 222 219 213 204 197 200 209 212 212 197 199 212 178 188 199 193 193 200 203 203 213 226 241 264 291 305 318 333 348 348 343 342 348 1 9 57 225
225 224 228 227 227 224 221 223 225 221 215 209 211 216 215 211 209 214 213 210 210 210 214 215 218 220 225 235 250 266 273 289 304 309 321 320 325 328 329 343 348 323 267
240 235 235 231 232 232 230 227 226 230 230 224 219 220 220 219 219 220 221 223 224 223 224 227 230 235 239 244 258 264 269 281 292 300 309 306 309 313 315 318 314 304 273
240 245 243 240 236 232 235 235 234 233 234 231 228 228 229 228 227 226 226 230 231 231 232 233 237 241 245 250 259 264 270 275 284 296 298 297 298 299 301 304 291 293 301
246 248 244 242 241 236 237 238 238 238 235 237 236 236 238 236 234 233 232 234 236 239 240 240 242 245 249 255 260 264 267 273 281 288 287 288 292 289 290 292 279 269 294
252 252 251 244 243 242 241 241 243 246 239 236 238 243 246 245 242 241 241 243 242 245 244 245 247 249 250 252 257 263 266 272 275 277 281 284 288 281 283 282 272 258 257
264 258 254 251 247 245 246 246 247 249 250 241 242 244 246 247 246 245 245 247 248 249 249 246 246 250 253 255 255 257 262 265 267 268 272 279 283 277 273 270 265 260 258
264 265 261 252 249 249 248 248 248 248 248 246 244 245 246 248 250 250 250 250 250 250 250 250 249 251 255 255 258 258 262 262 264 266 267 272 274 269 266 264 257 256 259
270 267 265 256 252 251 250 250 250 250 250 251 251 248 245 248 250 252 252 253 251 251 250 251 252 253 255 257 260 261 260 261 262 263 265 268 270 261 252 252 250 252 260
286 272 265 259 256 255 251 249 250 251 251 252 252 252 251 250 250 252 254 252 249 249 249 250 252 254 257 260 262 261 260 260 261 261 263 264 262 257 246 246 252 253 258
276 277 270 264 261 254 249 247 247 248 248 249 252 251 252 253 254 255 255 252 248 248 250 252 254 256 257 258 262 262 263 263 262 263 263 261 254 247 245 241 248 253 260
276 271 268 266 265 260 258 256 253 253 254 255 256 256 257 254 253 254 254 254 252 252 251 250 249 250 254 252 254 266 277 277 271 267 261 255 252 235 242 245 249 249 259
277 272 267 270 268 267 267 259 255 253 256 257 254 254 254 254 254 252 254 255 256 254 255 255 252 251 252 253 250 247 259 256 277 271 259 249 250 236 243 243 242 259 268
279 277 270 268 270 269 267 259 258 257 256 261 264 262 260 259 258 255 254 254 256 257 254 256 257 253 252 253 250 249 250 255 267 284 265 258 251 242 248 251 249 257 267
289 282 280 274 271 267 264 265 263 260 262 265 264 266 269 268 260 260 257 255 255 255 257 256 257 256 254 253 254 253 254 254 256 254 270 266 256 248 241 257 255 260 266
289 282 285 282 274 268 264 264 262 265 266 266 267 268 269 272 271 264 260 259 257 256 258 259 259 260 257 257 256 256 253 251 254 252 255 263 265 264 262 260 257 264 265